TIME,DELAY(SENSOR),PRES,T(CTD),SAL,OXYGEN,RAWTEMP,T(OPTODE),TCPHASE,FLUOR,BETA(BETA700),BETA(BETA412),BETA(BETA440),CDOM,C(CSC),CHECK
1374437650,5808,955.6500244140625000,4.1319999694824220,34.4860000610351560,37.4691886901855500,572.0928955078125000,4.1105041503906250,56.0232200622558600,55,98,98,78,83,15607,46519
1374610024,5808,984.6099853515625000,4.0574998855590820,34.5032005310058600,37.0538291931152340,574.3696899414062000,4.0396881103515625,56.1111488342285160,54,97,99,76,82,15601,8101
1374610247,5809,963.6099853515625000,4.0934000015258790,34.4949989318847660,37.3201484680175800,573.2260131835938000,4.0752658843994140,56.0557594299316400,55,97,99,77,82,15600,2925
1374610470,5809,942.5700073242188000,4.1609997749328610,34.4845008850097660,36.7323799133300800,571.0941772460938000,4.1415538787841800,56.1215095520019500,55,97,99,78,81,15598,11388
1374610695,5809,921.0599975585938000,4.1999001502990720,34.4799003601074200,37.4395599365234400,569.8416748046875000,4.1804809570312500,56.0005607604980500,55,98,98,78,82,15598,43097
1374610920,5807,899.7100219726562000,4.2687997817993160,34.4696998596191400,35.4645004272460940,567.6444091796875000,4.2487368583679200,56.2856788635253900,55,99,99,79,81,15600,31563
1374611143,5809,879.2500000000000000,4.3425998687744140,34.4588012695312500,34.2852516174316400,565.2413940429688000,4.3233408927917480,56.4463882446289060,54,98,99,78,82,15600,7933
1374611392,5808,858.2100219726562000,4.4149999618530270,34.4472007751464840,32.3484497070312500,562.8936157226562000,4.3961849212646480,56.7364997863769500,55,98,100,77,81,15600,26343
1374611665,5807,837.8099975585938000,4.4735999107360840,34.4364013671875000,30.6560096740722660,560.9979248046875000,4.4549660682678220,56.9957695007324200,55,99,98,78,81,15599,1984
1374611950,5808,816.1599731445312000,4.5647001266479490,34.4156990051269500,28.9373493194580080,558.1755981445312000,4.5424227714538570,57.2593498229980500,56,98,100,78,81,15601,42959
1374612175,5807,795.5399780273438000,4.6150999069213870,34.4067993164062500,27.6109695434570300,556.3635253906250000,4.5985450744628910,57.4703712463378900,54,100,99,78,82,15600,33720
1374612398,5807,774.3599853515625000,4.7024002075195310,34.3846015930175800,26.0876903533935550,553.7072753906250000,4.6807579994201660,57.7170791625976560,54,100,99,78,81,15600,11982
1374612624,5811,752.3900146484375000,4.7684998512268070,34.3667984008789060,24.4086093902587900,551.4320068359375000,4.7511348724365230,57.9961013793945300,55,99,99,78,81,15601,58231
1375301237,5809,991.6300048828125000,4.0020999908447270,34.5110015869140600,38.0059890747070300,576.1990966796875000,3.9827580451965330,55.9799118041992200,54,98,99,78,82,15569,39621
1375306464,5809,527.2999877929688000,6.0065999031066895,34.0993995666503900,58.1927490234375000,511.2202148437500000,5.9883551597595215,52.3889808654785160,55,102,95,78,79,15591,7495
1375306737,5809,506.3099975585937500,6.3076000213623050,34.0861015319824200,69.2027206420898400,501.4914855957031000,6.2859168052673340,50.8556518554687500,54,102,96,78,79,15590,61044
1375474065,5808,997.2800292968750000,4.0325999259948730,34.5069007873535160,37.1004295349121100,575.2114868164062000,4.0134940147399900,56.1118888854980500,54,98,100,78,81,15580,35311
1375474318,5811,976.8200073242188000,4.0795998573303220,34.5015983581543000,37.1327590942382800,573.6557006835938000,4.0619010925292970,56.0887107849121100,55,98,99,78,82,15583,41451
1375474582,5809,955.4299926757812000,4.1213998794555660,34.4911003112793000,37.0494308471679700,572.2954711914062000,4.1042060852050780,56.0873603820800800,55,99,98,77,81,15586,38741
1375474805,5809,934.1199951171875000,4.1689000129699710,34.4837989807128900,36.9468612670898440,570.7877807617188000,4.1510767936706540,56.0906105041503900,56,98,100,78,81,15587,38316
1375475204,5811,890.9799804687500000,4.2839999198913570,34.4678993225097660,35.0891189575195300,567.0847167968750000,4.2661190032958980,56.3345184326171900,55,99,98,77,81,15589,48660
1375475412,5810,870.6900024414062000,4.3312001228332520,34.4606018066406250,34.2911682128906250,565.5919189453125000,4.3124618530273440,56.4471588134765600,54,99,100,78,82,15590,49908
1375476122,5808,809.8800048828125000,4.4815001487731930,34.4342002868652340,31.0591392517089840,560.8792724609375000,4.4586429595947270,56.9275093078613300,54,99,99,77,80,15590,48185
1375476399,5808,788.5999755859375000,4.5499000549316410,34.4193000793457000,28.8511199951171880,558.5744018554688000,4.5300688743591310,57.2744293212890600,55,99,99,78,81,15591,62606
1375476657,5808,767.1199951171875000,4.6310000419616700,34.3973007202148440,26.6337509155273440,555.9202270507812000,4.6122679710388180,57.6421585083007800,55,99,99,78,81,15589,1497
1375477147,5809,725.5300292968750000,4.7989997863769530,34.3605995178222660,24.0309906005859380,550.4697265625000000,4.7808880805969240,58.0592002868652340,54,100,98,78,81,15592,35206
1375478327,5807,617.2399902343750000,5.1951999664306640,34.2187004089355500,25.8893909454345700,537.7683715820312000,5.1729068756103520,57.6156501770019500,55,100,98,79,82,15594,19990
1375478580,5808,596.5399780273438000,5.2741999626159670,34.2042007446289060,27.3334197998046880,535.1433715820312000,5.2537689208984375,57.3312110900878900,56,99,99,81,81,15593,52276
1375478868,5811,575.7199707031250000,5.3875999450683590,34.1772994995117200,28.9903507232666000,531.7459716796875000,5.3583459854125980,57.0164489746093750,55,101,98,78,81,15595,23244
1375479134,5808,554.7600097656250000,5.5817999839782715,34.1548995971679700,35.1787109375000000,525.5023193359375000,5.5503129959106445,55.9173011779785160,55,102,96,79,81,15593,46219
1375479412,5808,533.7700195312500000,5.7509999275207520,34.1240005493164060,45.7928199768066400,519.6049194335938000,5.7313680648803710,54.2143516540527340,55,101,97,77,80,15594,22822
1375479671,5809,512.5999755859375000,6.0132999420166020,34.1003990173339840,56.9263992309570300,511.2268981933594000,5.9881501197814940,52.5598182678222660,54,102,95,79,80,15594,38046
1375646842,5809,966.9500122070312000,4.0859999656677250,34.5027999877929700,36.6612892150878900,573.5280151367188000,4.0658740997314450,56.1559906005859400,55,97,99,77,81,15588,22100
1375647559,5808,904.2600097656250000,4.2554001808166500,34.4729003906250000,34.9167098999023440,568.0103149414062000,4.2373771667480470,56.3763809204101560,55,97,100,78,81,15587,29673
1375647770,5808,882.5499877929688000,4.3010997772216800,34.4659996032714840,34.4311294555664060,566.5095214843750000,4.2839789390563965,56.4352607727050800,54,98,100,78,81,15589,55632
1375650998,5809,589.5300292968750000,5.3635001182556150,34.1848983764648440,28.6823291778564450,532.1361083984375000,5.3463420867919920,57.0722885131835940,54,100,99,79,81,15587,11558
1375651231,5809,567.8599853515625000,5.5664000511169430,34.1553001403808600,34.5586585998535160,525.6849975585938000,5.5447010993957520,56.0179710388183600,55,101,98,78,81,15591,51628
1375651473,5810,547.1799926757812000,5.7547998428344730,34.1240005493164060,43.5380210876464840,519.5255737304688000,5.7337999343872070,54.5523796081543000,54,101,98,79,79,15590,19818
1375651750,5808,527.3099975585938000,5.9416999816894530,34.0941009521484400,57.0709991455078100,513.2797851562500000,5.9252758026123050,52.5655288696289060,54,101,96,78,80,15592,18859
1375652032,5810,505.6099853515625000,6.3517999649047850,34.0849990844726560,69.7859573364257800,499.9989929199219000,6.3315081596374510,50.7640495300293000,54,102,96,78,79,15590,27096
1375819615,5810,994.3900146484375000,4.0366997718811035,34.5075988769531250,36.5801887512207000,575.0435180664062000,4.0187230110168460,56.1885910034179700,55,98,99,77,80,15565,41958
1375819826,5809,973.2899780273438000,4.1029000282287600,34.5017013549804700,36.9656791687011700,573.0092773437500000,4.0820059776306150,56.1049804687500000,55,97,99,77,82,15565,53174
1375820049,5810,951.8599853515625000,4.1659002304077150,34.4968986511230500,35.9676513671875000,570.9091186523438000,4.1473078727722170,56.2438392639160160,55,98,99,78,80,15565,13466
1375820274,5810,930.6400146484375000,4.2048001289367680,34.4892997741699200,35.3398590087890600,569.6201171875000000,4.1873660087585450,56.3236618041992200,55,97,98,78,81,15562,4531
1375820497,5808,910.0000000000000000,4.2123999595642090,34.4807014465332000,34.9935111999511700,569.2244873046875000,4.1996560096740720,56.3714790344238300,55,98,100,78,81,15566,6292
1375823411,5808,658.2999877929688000,4.9966998100280760,34.3098983764648440,22.1970901489257800,544.1016845703125000,4.9775891304016110,58.3426399230957000,56,99,99,78,80,15583,64129
1375823721,5808,635.9099731445312000,5.0918998718261720,34.2844009399414060,21.9665203094482420,541.0317993164062000,5.0723018646240230,58.3607788085937500,55,100,98,78,81,15582,16479
1375824180,5808,594.2899780273438000,5.2677998542785645,34.2112007141113300,26.0684509277343750,535.4885864257812000,5.2431368827819820,57.5586090087890600,55,102,99,79,82,15583,56725
1375824405,5808,572.9500122070312000,5.3896999359130860,34.1800994873046900,29.6394596099853500,531.4542236328125000,5.3673238754272460,56.9019317626953100,55,100,98,78,81,15583,19723
1375824630,5808,552.7399902343750000,5.6020002365112305,34.1473999023437500,36.3046188354492200,524.4666748046875000,5.5821251869201660,55.7253990173339840,54,101,97,79,81,15583,23632
1375824891,5810,531.1300048828125000,5.8042001724243160,34.1086006164550800,47.9017906188964840,518.0747070312500000,5.7783060073852540,53.8959693908691400,55,102,96,79,81,15584,9012
1375825150,5809,510.1099853515625000,6.1419000625610350,34.0788002014160160,64.6816177368164000,507.2829895019531000,6.1088581085205080,51.4981193542480500,54,103,98,77,79,15584,27541
1375992444,5808,971.4400024414062000,4.1100001335144040,34.4998016357421900,35.4352111816406250,572.6956176757812000,4.0917630195617680,56.3384895324707000,55,98,99,78,81,15577,56647
1375992674,5809,950.7000122070312000,4.1881999969482420,34.4916992187500000,35.2205200195312500,570.2504882812500000,4.1677742004394530,56.3486289978027340,55,97,100,78,81,15576,52751
1375992915,5809,928.8499755859375000,4.2536001205444340,34.4799003601074200,34.4418792724609400,568.0982055664062000,4.2346458435058590,56.4488410949707000,54,97,99,78,81,15576,58001
1375993126,5808,907.5900268554688000,4.2887001037597660,34.4744987487793000,33.8947181701660160,566.8535766601562000,4.2732939720153810,56.5246887207031250,55,98,100,78,81,15578,30338
1375993346,5808,883.8200073242188000,4.3365001678466800,34.4636001586914060,33.2698593139648440,565.3790283203125000,4.3190708160400390,56.6070709228515600,56,98,100,78,82,15577,22847
1375993585,5808,863.3599853515625000,4.3969001770019530,34.4499015808105500,32.5308990478515600,563.5686035156250000,4.3752441406250000,56.7164001464843750,54,99,99,78,79,15575,44352
1375996265,5807,627.2299804687500000,5.1044001579284670,34.2472991943359400,23.4500198364257800,540.5806274414062000,5.0862159729003910,58.0849800109863300,54,100,98,77,81,15581,37294
1375996520,5809,606.7500000000000000,5.2269001007080080,34.2200012207031250,25.7528705596923830,536.7758178710938000,5.2034869194030760,57.6247901916503900,55,99,100,79,80,15581,36456
1375996825,5807,582.6599731445312000,5.3520998954772950,34.1783981323242200,30.8693103790283200,532.6047973632812000,5.3319191932678220,56.6943511962890600,54,100,99,79,82,15582,55663
1375997043,5808,562.0700073242188000,5.5390000343322750,34.1472015380859400,37.7731094360351560,526.5319824218750000,5.5186738967895510,55.5058212280273440,54,100,98,78,81,15582,29271
1375997287,5810,541.1599731445312000,5.8007001876831055,34.1105995178222660,46.7223014831543000,518.3007202148438000,5.7713761329650880,54.0681991577148440,54,102,97,78,80,15581,23511
1375997822,5809,498.6799926757812500,6.4176001548767090,34.0714988708496100,75.6098632812500000,497.9353027343750000,6.3945250511169430,50.0353202819824200,52,102,96,78,79,15581,61735
1376165236,5808,992.7299804687500000,4.0749998092651370,34.5041007995605500,35.4168586730957000,573.9304199218750000,4.0533561706542970,56.3544006347656250,54,97,98,77,81,15581,19232
1376165467,5808,972.8499755859375000,4.1258997917175290,34.4995002746582000,35.8850288391113300,572.1901245117188000,4.1074810028076170,56.2621192932128900,55,98,98,77,81,15582,4131
1376165731,5808,951.4500122070312000,4.1714000701904300,34.4939994812011700,35.5858917236328100,570.7022094726562000,4.1537361145019530,56.2996788024902340,55,99,99,79,81,15583,47817
1376165967,5808,930.2299804687500000,4.2418999671936035,34.4845008850097660,34.5845413208007800,568.5093994140625000,4.2218718528747560,56.4302215576171900,54,99,99,78,79,15582,37545
1376166178,5811,908.7299804687500000,4.3303999900817870,34.4754981994628900,33.6791992187500000,565.6370239257812000,4.3110618591308590,56.5463409423828100,55,98,100,78,81,15582,32272
1376167061,5809,825.8699951171875000,4.5117001533508300,34.4319000244140600,29.4356594085693360,559.8341064453125000,4.4910368919372560,57.1949501037597660,54,100,99,78,80,15585,62937
1376167336,5810,804.7299804687500000,4.5559000968933105,34.4188995361328100,28.0083103179931640,558.3842773437500000,4.5359587669372560,57.4198493957519500,55,100,99,78,81,15582,51727
1376167584,5810,783.4299926757812000,4.5968999862670900,34.4085006713867200,27.0603504180908200,557.0455932617188000,4.5774230957031250,57.5776710510253900,55,99,99,78,81,15585,35407
1376168316,5809,720.1900024414062000,4.8604998588562010,34.3431015014648440,22.4172306060791000,548.5286865234375000,4.8408780097961430,58.3350486755371100,55,101,99,77,81,15585,33949
1376168802,5808,678.4199829101562000,5.0173001289367680,34.3053016662597660,21.6908397674560550,543.4827270507812000,4.9966950416564940,58.4409484863281250,55,100,99,78,80,15587,13052
1376169079,5808,657.5900268554688000,5.0717000961303710,34.2663993835449200,22.0859603881835940,541.6760253906250000,5.0524330139160160,58.3511695861816400,56,99,100,77,82,15584,1402
1376169353,5809,636.5700073242188000,5.1704998016357420,34.2322998046875000,24.3363895416259770,538.6267700195312000,5.1464500427246090,57.9024009704589840,55,100,98,78,81,15586,12129
1376169575,5807,614.8699951171875000,5.2551999092102050,34.2020988464355500,27.9986495971679700,535.6124877929688000,5.2393231391906740,57.2231483459472660,54,99,99,78,81,15587,47261
1376170017,5810,573.4299926757812000,5.5767002105712890,34.1439018249511700,38.0414199829101560,525.3087768554688000,5.5562591552734375,55.4514999389648440,55,100,97,78,80,15585,59589
1376170295,5807,552.0300292968750000,5.7546000480651855,34.1162986755371100,46.3352012634277340,519.4835205078125000,5.7350950241088870,54.1385498046875000,54,103,98,77,80,15587,39225
1376170539,5811,531.7700195312500000,6.0350999832153320,34.1022987365722660,55.8831214904785160,510.5032958984375000,6.0103049278259280,52.6925392150878900,54,102,96,78,79,15588,60454
1376170845,5809,507.1099853515625000,6.4365000724792480,34.0843009948730500,70.6084594726562500,497.4453125000000000,6.4094810485839840,50.6327781677246100,54,101,96,79,78,15587,37839
